FENGYUN 1C DEB

Satellite information

Favourite Embed

Satellite Type and Status

DEBRISIN ORBIT

Key statistics

Satellite FENGYUN 1C DEB at a glance.

Uptime

9715

Days in orbit

Revolutions

≈ 14.1

Per day

Orbit

SSO

Sun Synchronous Orbit

Inclination

99.2

Latest

Satellite identification and parameters

Extended collection of information and parameters for FENGYUN 1C DEB.

Object identification

Identified? True

Debris? True

Object name: FENGYUN 1C DEB

International designator: 1999-025AHL

Object number (NORAD): 30498

Object ID (CCSDS): 30498

Country: PEOPLES REPUBLIC OF CHINA (PRC)

Current information (Y/N): Y

RCS size: SMALL

Orbital parameters

Period: 102.413 minutes

Inclination: 99.2378 deg

SMA: 7250.983 km

Apoapsis: 948.676 km

Periapsis: 797.021 km

RAAN: 38.8261 deg

Eccentricy: 0.01045753

Argument of periapsis: 153.3442 deg

Mean anomaly: 335.5843 deg

Mean motion: 14.0607147 rev/day

Mean motion (dot): 0.00004203 rev/day2

B* drag term: 0.0024622535 1/REarth

Two-line elements (TLE)

Creation date: Dec. 14, 2025, 3:07 a.m.

Reference frame: TEME

Reference center: EARTH

Epoch: Dec. 13, 2025, 4:21 p.m. UTC

TLE line 0: 0 FENGYUN 1C DEB

TLE line 1: 1 30498U 99025AHL 25347.68141679 .00004203 00000-0 24623-2 0 9990

TLE line 2: 2 30498 99.2378 38.8261 0104575 153.3442 335.5843 14.06071470957828

Live tracking on map

Real-time ground track for satellite FENGYUN 1C DEB.

In-orbit conjunctions

A list of the most updated potential collisions computed for object FENGYUN 1C DEB.

Target Orbit TCA Probability of collision Miss distance Type
SL-14 DEB LEO 2025-03-02 04:05:39 0.0001255991 323.0 (m) DEBRIS

Associated space launch

Chinese polar orbiting meteorological satellite

FENGYUN 1C DEB was lifted into orbit during the mission ‘Long March 4B | Feng Yun 1C’, on board a Long March 4B space rocket.

The launch took place on May 10, 1999, 1:33 a.m. from Launch Complex 7.

For more information about the launch, click the button.

Launch to space Long March 4B | Feng Yun 1C
Long March 4B | Feng Yun 1C

Agency: N/A

Status: Launch Successful

Launch date: May 10, 1999, 1:33 a.m. UTC

Rocket: Long March 4B

Launch pad: Launch Complex 7

Location: Taiyuan Satellite Launch Center, People's Republic of China

...

Latest news about this satellite

There are no fresh news available about this satellite. Check back as we update our databases every day.


Newsletter sign-up

Weekly statistics, charts and insights to help you stay on top of the space industry.